Weather History for KGYY - March, 2014

Change the Weather History Date:

Wednesday, March 5, 2014

  Actual Average Record
Temperature  
Mean Temperature 20 °F -  
Max Temperature 25 °F 40 °F 68 °F (1961)
Min Temperature 16 °F 24 °F 7 °F (1960)
Degree Days  
Heating Degree Days 44    
Moisture  
Dew Point 14 °F    
Average Humidity 70    
Maximum Humidity 86    
Minimum Humidity 58    
Precipitation  
Precipitation 0.00 in - - ()
Sea Level Pressure  
Sea Level Pressure 30.37 in    
Wind  
Wind Speed 6 mph (ENE)    
Max Wind Speed 14 mph    
Max Gust Speed 23 mph    
Visibility 8 miles    
Events Snow    
Averages and records for this station are not official NWS values.
T = Trace of Precipitation, MM = Missing Value Source: NWS Daily Summary

Daily Weather History Graph

Daily Weather History Graph

Search for Another Location

Airport or City:

Trip Planner

Search our weather history database for the weather conditions in past years. The results will help you decide how hot, cold, wet, or windy it might be!

Date:

Astronomy

Mar. 05, 2014 Rise Set
Actual Time 6:17 AM CST 5:44 PM CST
Civil Twilight 5:50 AM CST 6:12 PM CST
Nautical Twilight 5:18 AM CST 6:44 PM CST
Astronomical Twilight 4:45 AM CST 7:17 PM CST
Moon 8:39 AM CST (3/5) 10:57 PM CST (3/5)
Length of Visible Light 12h 22m
Length of Day
11h 26m
Waxing Crescent, 23% of the Moon is Illuminated
Mar 5
Waxing Crescent
Mar 8
First Quarter
Mar 16
Full
Mar 23
Last Quarter
Mar 30
New

Hourly Weather History & Observations

Time (CST) Temp. Windchill Dew Point Humidity Pressure Visibility Wind Dir Wind Speed Gust Speed Precip Events Conditions
12:15 AM 18.0 °F - 8.4 °F 66% 30.25 in 10.0 mi Calm Calm - N/A   Clear
12:35 AM 16.7 °F - 9.5 °F 73% 30.26 in 10.0 mi Calm Calm - N/A   Clear
12:55 AM 16.0 °F - 9.3 °F 75% 30.26 in 10.0 mi Calm Calm - N/A   Scattered Clouds
1:15 AM 18.5 °F 13.3 °F 11.1 °F 73% 30.26 in 10.0 mi ENE 3.5 mph - N/A   Scattered Clouds
1:35 AM 21.6 °F 15.3 °F 10.6 °F 63% 30.26 in 10.0 mi East 4.6 mph - N/A   Mostly Cloudy
1:55 AM 22.1 °F 17.4 °F 10.6 °F 61% 30.27 in 10.0 mi ENE 3.5 mph - N/A   Mostly Cloudy
2:15 AM 23.0 °F 17.0 °F 10.2 °F 58% 30.27 in 10.0 mi ENE 4.6 mph - N/A   Overcast
2:35 AM 23.0 °F - 10.6 °F 59% 30.28 in 10.0 mi Calm Calm - N/A   Overcast
2:55 AM 23.5 °F 16.4 °F 11.3 °F 60% 30.27 in 10.0 mi NE 5.8 mph - N/A   Overcast
3:15 AM 23.7 °F 16.6 °F 13.6 °F 65% 30.28 in 10.0 mi NE 5.8 mph - N/A   Overcast
3:35 AM 23.9 °F 15.0 °F 14.5 °F 67% 30.30 in 10.0 mi NNE 8.1 mph - N/A   Overcast
4:45 AM 23.0 °F 13.1 °F 17.6 °F 80% 30.31 in 3.0 mi NE 9.2 mph - N/A Snow Light Snow
5:45 AM 21.2 °F 10.1 °F 17.6 °F 86% 30.34 in 4.0 mi NE 10.4 mph - N/A Snow Light Snow
6:45 AM 21.2 °F 9.5 °F 17.6 °F 86% 30.36 in 2.0 mi NE 11.5 mph - N/A Snow Light Snow
7:45 AM 21.2 °F - 17.6 °F 86% 30.38 in 1.5 mi North - - N/A Snow Light Snow
8:45 AM 21.2 °F 8.3 °F 17.6 °F 86% 30.40 in 4.0 mi NNE 13.8 mph - N/A Snow Light Snow
9:45 AM 23.0 °F 11.7 °F 15.8 °F 74% 30.40 in 1.0 mi ENE 11.5 mph - N/A Snow Light Snow
10:45 AM 24.8 °F 14.0 °F 15.8 °F 69% 30.40 in 3.0 mi ENE 11.5 mph 23.0 mph N/A Snow Light Snow
11:45 AM 23.0 °F 13.1 °F 17.6 °F 80% 30.41 in 2.0 mi NE 9.2 mph 20.7 mph N/A Snow Light Snow
12:45 PM 23.0 °F 13.1 °F 17.6 °F 80% 30.40 in 3.0 mi NE 9.2 mph 20.7 mph N/A Snow Light Snow
1:45 PM 24.8 °F 14.0 °F 17.6 °F 74% 30.40 in 7.0 mi NE 11.5 mph 23.0 mph N/A Snow Light Snow
3:45 PM 23.0 °F 10.6 °F 15.8 °F 74% 30.41 in 10.0 mi NE 13.8 mph - N/A   Overcast
4:45 PM 23.0 °F 12.4 °F 15.8 °F 74% 30.42 in 10.0 mi NE 10.4 mph - N/A   Overcast
5:45 PM 23.0 °F 12.4 °F 15.8 °F 74% 30.42 in 10.0 mi ENE 10.4 mph 19.6 mph N/A   Overcast
6:45 PM 23.0 °F 13.1 °F 15.8 °F 74% 30.42 in 10.0 mi NNE 9.2 mph - N/A   Mostly Cloudy
7:45 PM 24.8 °F 15.3 °F 17.6 °F 74% 30.42 in 10.0 mi ENE 9.2 mph - N/A   Mostly Cloudy
8:15 PM 24.4 °F 17.5 °F 17.4 °F 75% 30.42 in 10.0 mi ENE 5.8 mph - N/A   Clear
8:35 PM 24.6 °F 18.8 °F 17.1 °F 73% 30.43 in 10.0 mi East 4.6 mph - N/A   Mostly Cloudy
8:45 PM 24.8 °F 17.9 °F 15.8 °F 69% 30.43 in 10.0 mi East 5.8 mph - N/A   Overcast
8:55 PM 25.3 °F 14.7 °F 14.9 °F 65% 30.43 in 10.0 mi East 11.5 mph - N/A   Overcast
9:15 PM 25.3 °F 15.3 °F 13.8 °F 62% 30.44 in 10.0 mi East 10.4 mph - N/A   Overcast
9:35 PM 25.2 °F 15.7 °F 13.5 °F 61% 30.44 in 10.0 mi East 9.2 mph - N/A   Overcast
9:45 PM 24.8 °F 19.1 °F 14.0 °F 64% 30.43 in 10.0 mi ESE 4.6 mph 18.4 mph N/A   Overcast
9:55 PM 24.6 °F 17.7 °F 13.1 °F 62% 30.43 in 10.0 mi East 5.8 mph - N/A   Mostly Cloudy
10:15 PM 24.4 °F 14.9 °F 13.3 °F 63% 30.43 in 10.0 mi East 9.2 mph - N/A   Scattered Clouds
10:35 PM 24.4 °F 14.2 °F 13.1 °F 62% 30.43 in 10.0 mi East 10.4 mph - N/A   Clear
10:55 PM 23.9 °F 13.5 °F 12.0 °F 61% 30.43 in 10.0 mi East 10.4 mph - N/A   Clear
11:15 PM 23.7 °F 12.6 °F 12.0 °F 61% 30.43 in 10.0 mi East 11.5 mph - N/A   Scattered Clouds
11:35 PM 23.0 °F 13.9 °F 11.8 °F 62% 30.42 in 10.0 mi East 8.1 mph - N/A   Mostly Cloudy
11:55 PM 23.0 °F 11.1 °F 11.3 °F 61% 30.42 in 10.0 mi East 12.7 mph - N/A   Overcast